Location: Holyhead Bay
(53.3667°N, 4.6667°W)
Time: 18:48:58
(UTC+00:00)

Radarsat Rocket - Pass Details

Date: 24 November 2020
Orbit: 933 x 1491 km, 100.6° (Epoch: 16 January)

Event Time Altitude Azimuth Distance (km) Brightness Sun altitude
Rises 17:05:07 0° 157° (SSE) 3,621 7.0 -8.0°
Reaches altitude 10° 17:07:27 10° 157° (SSE) 2,711 6.4 -8.3°
Maximum altitude 17:13:29 87° 70° (ENE) 1,045 4.2 -9.1°
Drops below altitude 10° 17:20:17 10° 342° (NNW) 3,029 6.6 -10.1°
Sets 17:23:00 0° 342° (NNW) 4,073 7.2 -10.4°
